This is the latest recevied weather packets stored in our database for station/object KD8OZS. If no packets are shown the sender has not sent any weather packets the latest 10 day(s).
| Time | Temp. | Humidity | Pressure | Rain* | Wind** | Luminosity | Snow |
|---|---|---|---|---|---|---|---|
| 1778020950 | 14.44° C | 95% | 1000.3 hPa | 6.1 mm | - | 16 W/m² | - |
| 1778020648 | 15° C | 95% | 1000.3 hPa | 6.1 mm | - | 13 W/m² | - |
| 1778020344 | 15° C | 95% | 1000.5 hPa | 8.89 mm | - | 8 W/m² | - |
| 1778020040 | 15° C | 94% | 1000.6 hPa | 25.91 mm | - | 7 W/m² | - |
| 1778019736 | 15° C | 93% | 1000.4 hPa | 27.69 mm | - | 6 W/m² | - |
| 1778019434 | 15° C | 93% | 1000.4 hPa | 9.65 mm | - | 2 W/m² | - |
| 1778019130 | 15.56° C | 92% | 1000.4 hPa | 3.05 mm | - | 3 W/m² | - |
| 1778018827 | 15.56° C | 91% | 1000 hPa | 1.27 mm | - | 15 W/m² | - |
| 1778018525 | 15.56° C | 91% | 999.9 hPa | 1.78 mm | - | 14 W/m² | - |
| 1778018222 | 16.11° C | 89% | 999.8 hPa | 3.05 mm | - | 15 W/m² | - |
| 1778017920 | 16.67° C | 88% | 999.7 hPa | 1.27 mm | - | 17 W/m² | - |
| 1778017617 | 16.67° C | 86% | 999.6 hPa | 0 mm | - | 22 W/m² | - |
| 1778017315 | 16.67° C | 86% | 999.5 hPa | 0 mm | - | 57 W/m² | - |
| 1778017012 | 16.67° C | 86% | 999.6 hPa | 0 mm | - | 55 W/m² | - |
| 1778016709 | 17.22° C | 85% | 999.6 hPa | 0 mm | - | 66 W/m² | - |
| 1778016405 | 17.22° C | 84% | 999.8 hPa | 0 mm | - | 72 W/m² | - |
| 1778016103 | 17.22° C | 85% | 999.7 hPa | 0 mm | - | 98 W/m² | - |
| 1778015799 | 17.22° C | 84% | 999.7 hPa | 0 mm | - | 38 W/m² | - |
| 1778015497 | 17.22° C | 84% | 999.9 hPa | 0 mm | - | 59 W/m² | - |
| 1778015193 | 17.22° C | 84% | 999.7 hPa | 0 mm | - | 53 W/m² | - |
| 1778014890 | 17.22° C | 83% | 999.8 hPa | 0 mm | - | 76 W/m² | - |
| 1778014587 | 17.78° C | 82% | 999.9 hPa | 0 mm | - | 37 W/m² | - |
| 1778014286 | 17.78° C | 82% | 999.8 hPa | 0 mm | - | 57 W/m² | - |
| 1778013982 | 17.78° C | 82% | 1000 hPa | 0 mm | - | 84 W/m² | - |
| 1778013680 | 17.78° C | 82% | 999.9 hPa | 0 mm | - | 55 W/m² | - |
* Rain latest hour (hover to see other rain measurements)
** Current wind speed in m/s (hover to see current wind gust speed)